{"data":{"norad_id":53000,"intl_designator":"2022-076Q","name":"STARLINK-4194","alt_names":[],"object_type":"PAYLOAD","status":"ACTIVE","operator":null,"country":"US","launch_date":"2022-07-07","launch_site_code":"AFETR","launch_vehicle":null,"mission":null,"orbit_class":"UNKNOWN","rcs_meters":null,"size_class":null,"mass_kg":null,"dimensions":null,"purposes":["comms"],"wikipedia_slug":null,"has_3d_model":false,"image_url":null,"decayed_at":null,"tle_current":{"epoch":"2026-09-19T17:00:31.232448Z","epoch_age_seconds":138093,"freshness":"FRESH","line1":"1 53000U 22076Q   26262.70869482 -.00001242  00000+0 -25627-4 0  9993","line2":"2 53000  53.1613 287.0680 0001178  80.5659 279.5477 15.34388344232359","mean_motion":15.34388344,"eccentricity":0.0001178,"inclination_deg":53.1613,"raan_deg":287.068,"arg_perigee_deg":80.5659,"mean_anomaly_deg":279.5477,"bstar":-2.5627e-5,"rev_number":23235,"period_min":93.848470996988,"perigee_km":461.93202945341,"apogee_km":463.5437395762,"semimajor_km":6840.8748845148,"source":"CELESTRAK","updated_at":"2026-09-20T09:00:40.141330Z"}}}